Flag Weather past 2 weeks in Backnang, Baden-Württemberg, Germany

Now
38 °F

Fog.


Feels Like: 33 °F
Forecast: 34 / 44 °F
Wind: 7 mph from East

Location: Oehringen

Current Time: Nov 28, 2014 at 7:43:25 PM

Latest Report: Nov 28, 2014 at 7:00 PM


Visibility: 4 mi

Pressure: 29.92 "Hg

Humidity: 85%

Dew point: 34 °F

Location of BacknangLocation

Historic Weather in Backnang — Graph

°F

Backnang temperature yesterday

Maximum temperature yesterday: 43 °F (at 1:00 PM)
Minimum temperature yesterday: 40 °F (at 7:00 AM)
Average temperature yesterday: 41 °F

Past Weeks' High & Low Weather Summary

 TemperatureHumidityPressure
High54 °F (Nov 22, 2:00 PM)100% (Nov 20, 5:00 AM)30.35 "Hg (Nov 20, 5:00 AM)
Low36 °F (Nov 21, 8:00 AM)69% (Nov 22, 1:00 PM)29.50 "Hg (Nov 16, 1:00 AM)
Average44 °F89%29.99 "Hg
* Reported Nov 13 6:00 PM — Nov 28 6:00 PM, Backnang, Weather by CustomWeather, © 2014

Note: Actual official high and low records may vary slightly from our data, if they occured in-between our weather recording intervals... More about our weather records

Advertising

Backnang weather history for previous 24 hours

 ConditionsComfort  
Time TempWeatherWind HumidityBarometerVisibility
6:00 PM
Nov 28
38 °FFog.7 mph85%29.91 "Hg4 mi
5:00 PM38 °FFog.8 mph84%29.90 "Hg4 mi
4:00 PM38 °FFog.7 mph85%29.88 "Hg4 mi
3:00 PM38 °FFog.7 mph85%29.87 "Hg3 mi
2:00 PM38 °FFog.7 mph85%29.87 "Hg3 mi
1:00 PM38 °FFog.7 mph84%29.89 "Hg3 mi
12:00 PM37 °FFog.6 mph84%29.90 "Hg3 mi
11:00 AM37 °FFog.6 mph85%29.90 "Hg3 mi
10:00 AM36 °FFog.6 mph86%29.90 "Hg2 mi
9:00 AM36 °FFog.7 mph85%29.90 "Hg2 mi
8:00 AM37 °FFog.6 mph85%29.89 "Hg2 mi
7:00 AM37 °FFog.7 mph85%29.87 "Hg3 mi
6:00 AM37 °FFog.6 mph87%29.87 "Hg2 mi
5:00 AM38 °FFog.5 mph87%29.87 "Hg2 mi
4:00 AM38 °FFog.5 mph86%29.87 "Hg2 mi
3:00 AM39 °FFog.5 mph86%29.86 "Hg2 mi
2:00 AM39 °FFog.2 mph87%29.86 "Hg2 mi
1:00 AM40 °FFog.3 mph86%29.86 "Hg3 mi
12:00 AM41 °FFog.2 mph86%29.86 "Hg2 mi
11:00 PM
Nov 27
42 °FFog.2 mph85%29.86 "Hg3 mi
10:00 PM41 °FFog.2 mph87%29.86 "Hg3 mi
9:00 PM41 °FFog.3 mph86%29.85 "Hg3 mi
8:00 PM42 °FFog.5 mph85%29.86 "Hg3 mi
7:00 PM41 °FFog.3 mph86%29.85 "Hg3 mi
Weather by CustomWeather, © 2014

See weather overviewHow to use our weather pages